FW1093 Weather Reports


time (UTC)temp
F
wind
direction
speed
knots
gust
knots
rain 1hr
in
rain 24hr
in
rain mn
in
humidity
%
barometer
mb
20260506215319 59 156 0.0 0.9 0.00 0.06 0.06 95 1007.1
20260506214327 59 137 0.0 0.0 0.00 0.06 0.06 95 1007.1
20260506213335 59 143 0.0 0.0 0.00 0.06 0.06 94 1007.1
20260506212345 58 145 0.0 1.7 0.01 0.06 0.06 94 1007.0
20260506211313 58 153 0.0 0.0 0.01 0.06 0.06 94 1006.9
20260506210329 58 153 0.0 0.0 0.01 0.06 0.06 94 1006.9
20260506205317 59 134 0.0 0.0 0.01 0.06 0.06 94 1006.9
20260506204335 59 143 0.0 0.9 0.01 0.06 0.06 94 1007.0
20260506203341 59 160 0.0 0.0 0.00 0.05 0.05 93 1007.2
20260506202330 59 166 0.0 0.0 0.00 0.05 0.05 93 1007.3
20260506201320 59 160 0.0 0.0 0.00 0.05 0.05 93 1007.5
20260506200328 59 124 0.0 0.0 0.00 0.05 0.05 93 1007.6
20260506195318 59 146 0.0 0.9 0.00 0.05 0.05 93 1007.6
20260506194326 59 139 0.0 0.0 0.00 0.05 0.05 93 1007.7
20260506193312 59 139 0.0 0.0 0.00 0.05 0.05 93 1007.8
20260506192348 59 144 0.0 1.7 0.01 0.05 0.05 93 1008.1
20260506191336 59 146 0.0 0.9 0.01 0.05 0.05 93 1008.0
20260506190330 59 101 0.9 2.6 0.02 0.05 0.05 92 1008.1
20260506185315 59 187 0.9 3.5 0.02 0.05 0.05 92 1008.3
20260506184324 58 231 0.0 1.7 0.02 0.05 0.05 92 1008.3
20260506183331 59 134 0.0 0.0 0.03 0.05 0.05 92 1008.4
20260506182340 58 153 0.0 3.5 0.02 0.04 0.04 92 1008.6
20260506181313 58 126 0.0 2.6 0.04 0.04 0.04 92 1008.8
20260506180344 58 142 0.9 2.6 0.03 0.03 0.03 91 1008.8
20260506175318 59 141 0.0 1.7 0.03 0.03 0.03 90 1008.6
20260506174343 59 122 0.0 0.9 0.03 0.03 0.03 90 1008.6
20260506173316 59 285 0.0 0.9 0.02 0.02 0.02 89 1008.5
20260506172331 60 105 0.0 1.7 0.01 0.01 0.01 87 1008.6
20260506171343 61 178 0.0 0.0 0.00 0.00 0.00 85 1009.0
20260506170337 61 125 0.0 0.9 0.00 0.00 0.00 83 1009.5
20260506165327 62 105 0.0 0.9 0.00 0.00 0.00 80 1009.7
20260506164342 63 63 0.0 0.9 0.00 0.00 0.00 79 1009.6
20260506163330 63 103 0.0 1.7 0.00 0.00 0.00 78 1009.5
20260506162337 64 225 0.0 1.7 0.00 0.00 0.00 78 1009.4
20260506161326 64 160 0.9 2.6 0.00 0.00 0.00 76 1009.5
20260506160315 64 231 0.0 6.1 0.00 0.00 0.00 76 1009.7
20260506155331 64 179 0.0 2.6 0.00 0.00 0.00 77 1009.8
20260506154317 64 235 0.0 2.6 0.00 0.00 0.00 76 1010.0
20260506153326 65 97 0.0 2.6 0.00 0.00 0.00 75 1009.9
20260506152335 65 207 0.0 3.5 0.00 0.00 0.00 76 1010.2
20260506151325 65 132 0.9 3.5 0.00 0.00 0.00 74 1009.9
20260506150333 65 157 0.0 3.5 0.00 0.00 0.00 75 1009.8
20260506145324 65 13 0.0 2.6 0.00 0.00 0.00 75 1009.9
20260506144331 66 133 0.9 3.5 0.00 0.00 0.00 73 1009.9
20260506143322 66 158 0.9 3.5 0.00 0.00 0.00 73 1009.8
20260506142330 66 135 0.0 1.7 0.00 0.00 0.00 74 1010.2
20260506141338 66 71 0.0 1.7 0.00 0.00 0.00 75 1010.1
20260506140335 65 198 0.0 4.3 0.00 0.00 0.00 76 1010.1
20260506135322 64 204 0.0 2.6 0.00 0.00 0.00 77 1010.1
20260506134339 64 320 0.0 2.6 0.00 0.00 0.00 77 1010.2
20260506133334 64 125 0.0 2.6 0.00 0.00 0.00 79 1010.2
20260506132325 63 140 0.0 3.5 0.00 0.00 0.00 80 1010.1
20260506131314 62 128 0.9 4.3 0.00 0.00 0.00 80 1010.0
20260506130328 62 152 0.0 1.7 0.00 0.00 0.00 81 1009.9
20260506125329 62 266 0.0 2.6 0.00 0.00 0.00 82 1010.0
20260506124338 61 165 0.0 3.5 0.00 0.00 0.00 83 1010.1
20260506123333 61 158 0.9 2.6 0.00 0.00 0.00 83 1010.2
20260506122322 61 172 0.0 1.7 0.00 0.00 0.00 83 1010.4
20260506121312 60 149 0.9 4.3 0.00 0.00 0.00 85 1010.7
20260506120321 60 184 0.9 3.5 0.00 0.00 0.00 86 1010.6
20260506115329 59 158 0.0 2.6 0.00 0.00 0.00 87 1010.4
20260506114320 58 121 0.0 4.3 0.00 0.00 0.00 88 1010.3
20260506113357 58 269 0.0 1.7 0.00 0.00 0.00 88 1010.3
20260506112325 58 199 0.0 2.6 0.00 0.00 0.00 89 1010.4
20260506111319 57 174 0.0 0.9 0.00 0.00 0.00 90 1010.5
20260506110351 57 110 0.0 0.9 0.00 0.00 0.00 90 1010.3
20260506105323 56 151 0.0 0.9 0.00 0.00 0.00 91 1010.5
20260506104332 56 150 0.0 0.9 0.00 0.00 0.00 91 1010.5
20260506103320 56 158 0.0 2.6 0.00 0.00 0.00 91 1010.2
20260506102335 55 106 0.0 0.9 0.00 0.00 0.00 91 1010.4
20260506101350 55 212 0.0 0.9 0.00 0.00 0.00 91 1010.3
20260506100317 55 172 0.0 0.9 0.00 0.00 0.00 91 1010.2
20260506095325 55 139 0.0 0.0 0.00 0.00 0.00 91 1010.2
20260506094314 55 162 0.0 0.9 0.00 0.00 0.00 91 1010.2
20260506093349 55 98 0.0 0.9 0.00 0.00 0.00 90 1010.2
20260506092317 55 154 0.0 0.0 0.00 0.00 0.00 90 1010.2
20260506091326 56 172 0.0 0.9 0.00 0.00 0.00 90 1010.1
20260506090314 56 109 0.0 0.9 0.00 0.00 0.00 90 1010.4
20260506085329 55 311 0.0 0.0 0.00 0.00 0.00 90 1010.2
20260506084318 56 174 0.0 0.0 0.00 0.00 0.00 89 1010.5
20260506083335 56 124 0.0 0.9 0.00 0.00 0.00 89 1010.4
20260506082326 56 54 0.0 0.0 0.00 0.00 0.00 89 1010.5
20260506081317 56 40 0.0 0.0 0.00 0.00 0.00 88 1010.5
20260506080330 56 79 0.0 0.0 0.00 0.00 0.00 88 1010.3
20260506073342 56 148 0.0 0.0 0.00 0.00 0.00 87 1010.6
20260506072330 56 160 0.0 0.0 0.00 0.00 0.00 86 1010.6
20260506071318 57 160 0.0 0.0 0.00 0.00 0.00 85 1010.6
20260506070333 57 170 0.0 1.7 0.00 0.00 0.00 84 1010.6
20260506062335 58 248 0.0 1.7 0.00 0.00 0.00 83 1010.4
20260506061325 58 135 0.0 0.9 0.00 0.00 0.00 83 1010.5
20260506060312 58 146 0.0 0.9 0.00 0.00 0.00 83 1010.5
20260506051312 60 82 0.0 0.0 0.00 0.00 0.00 79 1010.9
20260506050325 60 95 0.0 0.9 0.00 0.00 0.00 78 1011.0
20260506044320 60 137 0.0 0.9 0.00 0.00 0.00 77 1011.0
20260506043336 60 101 0.0 0.9 0.00 0.00 0.00 76 1011.0
20260506042328 60 124 0.0 0.9 0.00 0.00 0.00 76 1011.0
20260506041317 61 127 0.0 1.7 0.00 0.00 0.00 75 1010.9
20260506040325 61 165 0.0 1.7 0.00 0.00 0.00 74 1011.0
20260506035314 61 130 0.0 1.7 0.00 0.00 0.00 74 1011.1
20260506034321 61 152 0.0 0.0 0.00 0.00 0.00 73 1011.0
20260506033331 61 124 0.0 0.9 0.00 0.00 0.00 73 1011.0
20260506032319 61 141 0.9 3.5 0.00 0.00 0.00 72 1010.9
20260506031327 61 128 0.0 2.6 0.00 0.00 0.00 72 1010.9
20260506030317 62 198 0.0 3.5 0.00 0.00 0.00 72 1010.9
20260506025327 62 184 0.0 0.9 0.00 0.00 0.00 72 1011.1
20260506024317 62 182 0.0 3.5 0.00 0.00 0.00 71 1011.1
20260506023326 62 117 0.0 0.0 0.00 0.00 0.00 72 1011.0
20260506022314 62 167 0.0 1.7 0.00 0.00 0.00 71 1011.0
20260506021331 62 142 0.0 0.9 0.00 0.00 0.00 71 1011.0
20260506020321 62 167 0.0 0.9 0.00 0.00 0.00 71 1011.0
20260506015357 62 207 0.0 1.7 0.00 0.00 0.00 70 1010.8
20260506014324 62 156 0.0 1.7 0.00 0.00 0.00 69 1010.8
20260506013313 62 152 0.0 1.7 0.00 0.00 0.00 69 1010.6
20260506012330 62 147 0.0 0.9 0.00 0.00 0.00 69 1010.5
20260506011315 63 192 0.0 1.7 0.00 0.00 0.00 68 1010.3
20260506010331 63 174 0.0 0.9 0.00 0.00 0.00 67 1010.3
20260506005319 63 141 0.0 0.0 0.00 0.00 0.00 66 1010.2
20260506004329 64 181 0.0 2.6 0.00 0.00 0.00 65 1010.2
20260506003336 64 217 0.0 1.7 0.00 0.00 0.00 64 1010.0
20260506002326 65 122 0.0 1.7 0.00 0.00 0.00 63 1009.8
20260506001344 65 128 0.0 1.7 0.00 0.00 0.00 62 1009.6
20260506000330 66 138 0.0 3.5 0.00 0.00 0.00 61 1009.6
20260505235323 66 140 0.0 1.7 0.00 0.00 0.00 61 1009.4
20260505234338 67 93 0.0 0.9 0.00 0.00 0.00 61 1009.2
20260505233346 67 136 0.9 2.6 0.00 0.00 0.00 60 1009.3
20260505232315 68 195 0.0 3.5 0.00 0.00 0.00 59 1009.0
20260505231325 69 234 0.9 3.5 0.00 0.00 0.00 58 1008.9
20260505230314 69 158 0.9 5.2 0.00 0.00 0.00 57 1008.8
20260505225329 70 167 1.7 3.5 0.00 0.00 0.00 56 1008.7
20260505224318 71 335 0.0 3.5 0.00 0.00 0.00 56 1008.6
20260505223328 72 108 0.9 4.3 0.00 0.00 0.00 54 1008.6
20260505222317 73 256 0.0 2.6 0.00 0.00 0.00 53 1008.7
20260505221333 73 250 0.0 4.3 0.00 0.00 0.00 52 1008.7
20260505220341 74 108 0.0 4.3 0.00 0.00 0.00 54 1008.8